Regional Weather Roundup
Issued by NWS

Home | Current Version | Previous Version | Graphics & Text | Print | Product List | Glossary On
Versions: 1 2 3 4 5 6 7 8 9 10 11 12 13 14 15 16 17 18 19 20 21 22 23 24 25 26 27 28 29 30 31 32 33 34 35 36 37 38 39 40 41 42 43 44 45 46 47 48 49 50
000
ASUS45 KPSR 011600
RWRAZ

PRELIMINARY ARIZONA REGIONAL HOURLY WEATHER ROUNDUP
NATIONAL WEATHER SERVICE PHOENIX AZ
900 AM MST MON SEP 01 2014

NOTE: FAIR INDICATES FEW OR NO CLOUDS BELOW 12,000 FEET WITH NO
SIGNIFICANT WEATHER AND/OR OBSTRUCTIONS TO VISIBILITY.

AZZ001>003-036-011700-
NORTHWEST ARIZONA

CITY           SKY/WX    TMP DP  RH WIND       PRES   REMARKS
KINGMAN        SUNNY     87  46  24 SE10      29.98S
$$

AZZ004>008-015-016-018-011700-
NORTH CENTRAL ARIZONA

CITY           SKY/WX    TMP DP  RH WIND       PRES   REMARKS
GRAND CANYON   SUNNY     73  43  33 SW12      30.24R
WILLIAMS       SUNNY     72  46  40 SW5       30.30S
PRESCOTT       SUNNY     77  44  30 SE7       30.13R
FLAGSTAFF      SUNNY     70  43  37 VRB5      30.27R
PAYSON         SUNNY     77  41  27 CALM      30.17R
PAGE           SUNNY     79  33  19 N5        30.03S
$$

AZZ009>014-017-011700-
NORTHEAST ARIZONA

CITY           SKY/WX    TMP DP  RH WIND       PRES   REMARKS
WINSLOW        NOT AVBL
SAINT JOHNS    SUNNY     76  43  30 CALM      30.18S
$$

AZZ023-011700-
GREATER PHOENIX AREA

CITY           SKY/WX    TMP DP  RH WIND       PRES   REMARKS
PHOENIX        MOSUNNY   90  45  21 SE10      29.85R
GLENDALE       SUNNY     88  48  25 CALM      29.87R
LUKE AFB       NOT AVBL
DEER VALLEY    SUNNY     90  44  20 SE9       29.87R
SCOTTSDALE     SUNNY     92  44  19 SE7       29.89R
MESA-FALCON    SUNNY     91  43  18 SE6       29.87R
MESA-GATEWAY   MOSUNNY   91  45  19 SE12      29.89R
CHANDLER       SUNNY     88  52  29 VRB5      29.87R
$$

AZZ027-028-011700-
SOUTHWEST MARICOPA COUNTY AND PINAL COUNTY

CITY           SKY/WX    TMP DP  RH WIND       PRES   REMARKS
CASA GRANDE    SUNNY     90  48  24 SE5       29.88S
$$

AZZ503-504-507>509-011700-
SOUTHEAST ARIZONA

CITY           SKY/WX    TMP DP  RH WIND       PRES   REMARKS
TUCSON         SUNNY     87  44  22 S7        29.99R
DAVIS-MONTHAN  SUNNY     87  45  22 E5        29.98R
NOGALES        SUNNY     77  53  43 S3        30.07S
SIERRA VISTA   SUNNY     80  49  33 SE6       30.13S
SAFFORD        SUNNY     84  40  21 CALM      30.01S
$$

AZZ020-021-025-026-031-011700-
SOUTHWEST ARIZONA

CITY           SKY/WX    TMP DP  RH WIND       PRES   REMARKS
YUMA           SUNNY     93  65  39 SE10      29.75R
$$

CAZ031-033-041-043-047-048-061-011700-
SOUTHERN CALIFORNIA

CITY           SKY/WX    TMP DP  RH WIND       PRES   REMARKS
DOWNTOWN L.A.  MOSUNNY   75  64  68 CALM      29.82S
L.A. AIRPORT   PTSUNNY   73  64  73 CALM      29.83S
SAN DIEGO      PTSUNNY   69  62  78 S7        29.86R
BURBANK        SUNNY     72  63  73 CALM      29.84S
ONTARIO        MOSUNNY   72  64  76 CALM      29.85R HAZE
RIVERSIDE      SUNNY     72  63  73 CALM      29.85S
PALM SPRINGS   SUNNY     89  45  21 SE5       29.77R
IMPERIAL       SUNNY     87  69  54 SE7       29.73R
BLYTHE         SUNNY     90  54  29 S8        29.76R
$$

NVZ020-UTZ003-011700-
SOUTHERN NEVADA-UTAH

CITY           SKY/WX    TMP DP  RH WIND       PRES   REMARKS
LAS VEGAS      NOT AVBL
SALT LAKE CITY MOSUNNY   66  42  41 E3        30.08R
$$

NMZ009-TXZ055-011700-
NEW MEXICO-WEST TEXAS

CITY           SKY/WX    TMP DP  RH WIND       PRES   REMARKS
ALBUQUERQUE    MOSUNNY   76  40  27 S6        30.15R
EL PASO        MOSUNNY   84  45  25 E6        30.03R
$$


........................KEY........................
SKY/WX - SKY CONDITION/WEATHER
TMP    - TEMPERATURE IN FAHRENHEIT
DP     - DEW POINT IN FAHRENHEIT
RH     - RELATIVE HUMIDITY IN PERCENT
WIND   - DIRECTION AND SPEED IN MILES PER HOUR (MPH)
VRB    - VARIABLE WIND DIRECTION
PRES   - MEAN SEA LEVEL PRESSURE IN INCHES OF MERCURY
         F - FALLING PRESSURE   R - RISING PRESSURE
         S - STEADY PRESSURE
VSB    - VISIBILITY IN MILES
HX     - HEAT INDEX IN FAHRENHEIT
WCI    - WIND CHILL INDEX IN FAHRENHEIT
TC     - TEMPERATURE IN CELSIUS WHICH IS ALSO KNOWN AS
         TEMPERATURE IN CENTIGRADE
AFB    - AIR FORCE BASE
         LUKE AFB IS LUKE AIR FORCE BASE
         DAVIS-MONTHAN IS DAVIS-MONTHAN AIR FORCE BASE
NAS    - NAVAL AIR STATION
         EL CENTRO NAS IS EL CENTRO NAVAL AIR STATION
N/A    - NOT AVAILABLE



USA.gov is the U.S. government's official web portal to all federal, state and local government web resources and services.